Regional Weather Roundup
Issued by NWS Glasgow, MT

Current Version | Previous Version | Text Only | Print | Product List | Glossary On
Versions: 1 2 3 4 5 6 7 8 9 10 11 12 13 14 15 16 17 18 19 20 21 22 23 24 25 26 27 28
000
ASUS45 KGGW 170815
RWRGGW
HOURLY REGIONAL WEATHER ROUNDUP FOR NORTHEAST MONTANA
NATIONAL WEATHER SERVICE GLASGOW MONTANA
200 AM MDT TUE OCT 17 2017

NOTE: "FAIR" INDICATES FEW OR NO CLOUDS BELOW 12,000 FEET WITH NO
SIGNIFICANT WEATHER AND/OR OBSTRUCTIONS TO VISISBILITY.

NORTHEAST MONTANA


CITY           SKY/WX    TMP DP  RH WIND       PRES   REMARKS
GLASGOW        CLEAR     49  27  42 VRB3      29.87S
WOLF POINT     CLOUDY    37  29  72 NW3       29.89S
JORDAN           N/A     46  28  49 NW7       29.93S
WINNETT          N/A     42  27  55 SW5         N/A
SIDNEY         CLEAR     42  31  64 S12       29.92S
GLENDIVE       CLEAR     41  30  65 S7        29.95F
SCOBEY           N/A     49  24  38 S6        29.84F

FORT PECK REPORTS


CITY           SKY/WX    TMP DP  RH WIND       PRES   REMARKS
FORT PECK        N/A     56  41  57 S15         N/A
THE PINES        N/A     53  32  44 W10         N/A

SOUTHEAST MONTANA


CITY           SKY/WX    TMP DP  RH WIND       PRES   REMARKS
BILLINGS       CLEAR     49  26  41 SW12      30.07S
MILES CITY     CLEAR     44  30  57 SE8       29.99S
BAKER          CLEAR     46  29  51 W5        30.00F
LIVINGSTON     CLEAR     56  17  21 SW28G37   30.15F

CENTRAL MONTANA


CITY           SKY/WX    TMP DP  RH WIND       PRES   REMARKS
HAVRE          CLEAR     57  26  30 SW26G37   29.86R
LEWISTOWN      CLEAR     55  22  27 SW15      30.03F
GREAT FALLS    CLEAR     56  23  27 SW20      29.98S
CUT BANK       CLOUDY    56  22  26 W23G36    29.93F
HELENA         CLEAR     43  27  53 CALM      30.11F
BUTTE          CLEAR     31  24  75 SE5       30.23S
BOZEMAN        CLEAR     35  26  69 S8        30.18F

WESTERN MONTANA


CITY           SKY/WX    TMP DP  RH WIND       PRES   REMARKS
MISSOULA       CLEAR     34  28  79 E3        30.15S
KALISPELL      NOT AVBL

NORTH DAKOTA


CITY           SKY/WX    TMP DP  RH WIND       PRES   REMARKS
WILLISTON      CLOUDY    40  32  73 SW7       29.89F
DICKINSON      CLEAR     43  30  60 S9        29.95F
MINOT          CLEAR     48  33  56 S9        29.87F
BISMARCK       CLEAR     35  30  82 CALM      29.97F

SOUTHERN SASKATCHEWAN


CITY           SKY/WX    TMP DP  RH WIND       PRES   REMARKS
REGINA         PTCLDY    46  30  53 SW12      29.71F
ESTEVAN        CLEAR     46  32  57 SW14      29.80F
SWIFT CURRENT  PTCLDY    50  27  40 SW14G20   29.71S





USA.gov is the U.S. government's official web portal to all federal, state and local government web resources and services.